Regional Weather Roundup
Issued by NWS Goodland, KS

Home | Current Version | Previous Version | Text Only | Print | Product List | Glossary On
Versions: 1 2 3 4 5 6 7 8 9 10 11 12 13 14 15 16 17 18 19 20 21 22 23 24 25 26 27 28 29 30 31 32 33 34 35 36 37 38 39 40 41 42 43 44 45 46 47 48 49 50
000
ASUS43 KGLD 260308
RWRGLD

GOODLAND FORECAST AREA HOURLY WEATHER ROUNDUP
NATIONAL WEATHER SERVICE GOODLAND KS
900 PM MDT WED MAY 25 2016

...OFFICIAL OBSERVATIONS...

CITY           SKY/WX    TMP DP  RH WIND       PRES   REMARKS
GOODLAND KS    CLEAR     57  45  64 N13       29.92R
HILL CITY KS   CLEAR     65  61  87 NE9       29.85S
IMPERIAL NEB   CLOUDY    57  51  80 N9        29.94R
MCCOOK NEB     CLOUDY    59  51  75 VRB5      29.95R
AKRON CO       CLEAR     53  45  74 NE12      29.96R
BURLINGTON CO  CLEAR     56  43  61 NE17G24   29.94R
LIMON CO       CLEAR     59  41  51 E12       29.95S
$$

...UNOFFICIAL OBSERVATIONS...

CITY           SKY/WX    TMP DP  RH WIND       PRES   REMARKS
GOVE KS          N/A     65  32  29 MISG        N/A
LENORA KS        N/A     64  32  30 MISG        N/A
SHARON SPRINGS   N/A     62  53  73 CALM        N/A
KIT CARSON CO    N/A     62  36  38 CALM        N/A
YUMA CO          N/A     54  49  85 NE7         N/A
$$




USA.gov is the U.S. government's official web portal to all federal, state and local government web resources and services.